COSMOS 2251 DEB

Satellite information

Favourite Embed

Satellite Type and Status

DEBRISIN ORBIT

Key statistics

Satellite COSMOS 2251 DEB at a glance.

Uptime

11869

Days in orbit

Revolutions

≈ 14.2

Per day

Orbit

LEO

Low Earth Orbit

Inclination

74.0

Latest

Satellite identification and parameters

Extended collection of information and parameters for COSMOS 2251 DEB.

Object identification

Identified? True

Debris? True

Object name: COSMOS 2251 DEB

International designator: 1993-036BUR

Object number (NORAD): 39586

Object ID (CCSDS): 39586

Country: COMMONWEALTH OF INDEPENDENT STATES (CIS)

Current information (Y/N): Y

RCS size: SMALL

Orbital parameters

Period: 101.321 minutes

Inclination: 74.009 deg

SMA: 7199.362 km

Apoapsis: 893.762 km

Periapsis: 748.693 km

RAAN: 230.5784 deg

Eccentricy: 0.01007513

Argument of periapsis: 5.5344 deg

Mean anomaly: 174.6065 deg

Mean motion: 14.21221392 rev/day

Mean motion (dot): 0.00001479 rev/day2

B* drag term: 0.00065665467 1/REarth

Two-line elements (TLE)

Creation date: Dec. 11, 2025, 7:14 p.m.

Reference frame: TEME

Reference center: EARTH

Epoch: Dec. 11, 2025, 10:34 a.m. UTC

TLE line 0: 0 COSMOS 2251 DEB

TLE line 1: 1 39586U 93036BUR 25345.44085542 .00001479 00000-0 65665-3 0 9995

TLE line 2: 2 39586 74.0090 230.5784 0100751 5.5344 174.6065 14.21221392609536

Live tracking on map

Real-time ground track for satellite COSMOS 2251 DEB.

In-orbit conjunctions

A list of the most updated potential collisions computed for object COSMOS 2251 DEB.

Target Orbit TCA Probability of collision Miss distance Type
COSMOS 1125 LEO 2025-10-08 18:49:16 0.0001356268 587.0 (m) PAYLOAD
FENGYUN 1C DEB SSO 2025-09-07 20:00:23 0.0001274646 71.0 (m) DEBRIS

Associated space launch

Military communications satellite. Destroyed in a collision with Iridium 33.

COSMOS 2251 DEB was lifted into orbit during the mission ‘Kosmos-3M | Strela-2M 51’, on board a Kosmos-3M space rocket.

The launch took place on June 16, 1993, 4:17 a.m. from 132/1 (132L).

For more information about the launch, click the button.

Launch to space Kosmos-3M | Strela-2M 51
Kosmos-3M | Strela-2M 51

Agency: N/A

Status: Launch Successful

Launch date: June 16, 1993, 4:17 a.m. UTC

Rocket: Kosmos-3M

Launch pad: 132/1 (132L)

Location: Plesetsk Cosmodrome, Russian Federation

...

Latest news about this satellite

There are no fresh news available about this satellite. Check back as we update our databases every day.


Newsletter sign-up

Weekly statistics, charts and insights to help you stay on top of the space industry.